Location: El Centro
(32.7920°N, 115.5620°W)
Time: 11:24:42
(UTC-07:00)

Hamsat - Visible Passes

Search period start: 23 September 2017 00:00
Search period end: 03 October 2017 00:00
Orbit: 585 x 618 km, 97.7° (Epoch: 22 September)

Date Brightness Start Highest point End Pass type
(mag) Time Alt. Az. Time Alt. Az. Time Alt. Az.
23 Sep ? 03:44:34 10° NE 03:47:03 18° E 03:47:03 18° E visible
23 Sep ? 05:19:39 10° NNW 05:23:09 27° WNW 05:23:50 25° W visible
24 Sep ? 03:55:42 10° NE 03:58:43 24° E 03:58:43 24° E visible
24 Sep ? 05:31:42 10° NNW 05:34:43 20° WNW 05:35:30 19° W visible
25 Sep ? 04:07:02 10° NNE 04:10:23 34° E 04:10:23 34° E visible
25 Sep ? 05:44:00 10° NW 05:46:16 14° WNW 05:47:09 14° W visible
26 Sep ? 04:18:29 10° NNE 04:22:02 47° ENE 04:22:02 47° ENE visible
26 Sep ? 05:57:06 10° WNW 05:57:47 10° WNW 05:58:28 10° WNW visible
27 Sep ? 04:30:02 10° NNE 04:33:42 63° NE 04:33:42 63° NE visible
28 Sep ? 04:41:40 10° N 04:45:21 68° NNW 04:45:21 68° NNW visible
29 Sep ? 04:53:22 10° N 04:57:00 53° NW 04:57:00 53° NW visible
30 Sep ? 03:31:28 10° ENE 03:31:52 11° ENE 03:31:52 11° ENE visible
30 Sep ? 05:05:10 10° N 05:08:39 38° WNW 05:08:39 38° WNW visible
01 Oct ? 03:42:07 10° NE 03:43:31 15° ENE 03:43:31 15° ENE visible
01 Oct ? 05:17:04 10° NNW 05:20:18 28° WNW 05:20:18 28° WNW visible
02 Oct ? 03:53:14 10° NE 03:55:10 20° ENE 03:55:10 20° ENE visible
02 Oct ? 05:29:04 10° NNW 05:31:56 21° WNW 05:31:56 21° WNW visible
